Theta_e
331 332 329 329 328 327 326 326 325 324 324 324 323 323 323 324 324 325 325 319 322 327 332 334 335 335 333 333 333 333 333 333 333 332 332 333 333 334 334 334 334 333 332
330 331 332 331 330 329 328 326 326 325 325 325 325 325 324 325 324 324 324 325 322 324 327 331 333 333 332 332 331 332 332 332 332 331 330 330 331 331 331 331 332 333 333
332 331 331 331 331 332 329 328 327 327 326 326 326 325 325 326 325 325 325 325 324 322 324 328 329 330 331 331 331 331 330 327 326 326 325 326 326 327 327 328 330 330 331
334 334 334 333 333 332 332 332 330 330 329 328 327 327 326 326 325 325 326 325 325 325 323 322 325 327 326 328 328 326 324 323 320 319 319 320 321 322 323 323 325 327 328
327 330 329 328 330 332 330 328 328 328 326 327 326 327 327 326 325 324 322 322 321 320 320 313 310 313 317 319 320 320 319 317 315 314 314 315 315 317 317 318 319 321 323
315 319 320 320 323 326 322 319 321 324 325 323 322 323 324 323 322 321 319 315 313 315 313 308 305 302 306 309 312 314 314 313 312 311 311 311 312 313 313 314 315 316 315
307 310 312 312 316 315 313 312 314 318 322 318 321 321 318 315 315 315 308 307 308 306 301 298 298 298 297 301 305 307 309 310 309 309 309 309 310 310 311 312 312 312 313
301 303 304 305 304 308 307 306 308 310 314 313 314 312 310 310 311 305 303 303 304 301 297 295 294 294 294 294 297 301 304 305 306 306 306 306 307 308 309 309 310 310 311
297 299 300 300 301 302 302 302 303 305 306 308 308 311 308 305 307 308 299 300 302 299 296 292 291 291 292 292 293 294 298 300 302 302 303 304 305 306 306 307 308 308 309
294 295 296 297 298 298 298 299 298 300 304 302 304 303 306 306 303 302 303 297 298 294 293 291 289 289 289 290 290 291 293 296 297 298 299 300 302 303 304 305 306 306 306
292 293 294 295 295 295 295 295 295 296 297 297 297 297 299 300 300 302 300 298 295 294 292 290 288 288 288 288 289 288 291 293 294 295 296 297 299 300 302 303 303 303 304
290 290 291 292 292 293 292 293 293 293 293 293 293 292 292 291 291 293 294 292 290 294 291 289 287 286 286 286 287 286 287 290 292 293 293 294 296 297 299 300 300 301 301
287 287 289 289 290 291 291 291 291 290 290 290 290 289 289 288 289 290 290 288 288 291 292 288 286 285 285 285 285 284 284 287 289 290 291 292 294 295 296 296 297 298 298
286 287 287 287 288 289 289 289 289 289 288 288 287 287 286 286 287 287 286 286 285 287 289 287 286 284 284 283 283 283 282 284 286 288 289 290 292 293 292 293 294 295 296
286 285 285 285 286 287 287 287 286 286 286 286 285 285 283 283 283 284 284 284 284 283 284 286 284 284 283 283 282 281 280 282 284 285 287 288 290 290 290 291 292 293 294
284 284 284 284 284 285 285 285 285 284 284 284 283 282 282 282 282 282 282 282 281 281 280 283 282 282 282 280 280 279 280 280 281 283 284 286 287 288 287 288 289 291 291
283 283 283 283 283 283 284 283 283 283 281 281 282 281 280 281 281 281 281 280 279 279 278 280 281 281 279 278 278 278 278 278 279 280 282 284 285 284 285 286 287 288 288
283 282 282 282 282 282 282 282 281 281 280 279 280 280 279 280 280 280 279 279 278 279 278 276 278 278 277 277 275 276 275 276 276 278 281 282 282 282 282 284 284 284 284
282 282 281 281 281 281 281 281 281 281 279 279 279 278 279 279 279 279 278 277 277 278 277 276 275 276 276 275 274 274 274 274 275 276 278 278 278 279 280 281 282 281 281
281 281 280 280 280 280 280 281 280 280 280 279 279 278 278 278 278 278 277 276 276 276 275 273 273 272 273 273 273 271 271 272 272 273 275 274 276 276 278 279 278 278 280
280 281 281 281 281 280 280 280 279 278 278 277 277 277 277 277 278 277 276 274 274 273 272 271 270 270 270 269 268 269 269 269 270 274 271 272 273 274 275 275 275 277 280
279 280 280 280 280 281 282 280 279 278 277 276 275 275 276 276 276 276 276 275 274 271 270 268 268 267 268 268 269 268 267 265 264 272 268 269 273 272 271 273 275 277 279
279 278 279 279 279 280 281 279 279 277 275 274 274 274 274 275 275 273 273 272 272 272 272 268 267 267 267 268 268 266 265 264 264 267 267 266 271 268 271 271 274 276 278
277 277 278 279 279 279 280 279 277 275 274 273 273 274 273 273 275 271 270 268 268 267 268 268 268 268 268 269 268 266 264 264 264 267 267 263 267 266 268 270 272 275 274
277 277 277 277 277 278 278 278 276 275 273 272 273 273 273 272 275 273 269 266 265 264 267 267 268 268 268 268 268 264 261 260 260 263 266 262 265 264 265 267 271 271 272
277 277 276 276 275 277 278 277 276 274 272 270 270 271 274 272 273 273 268 265 262 262 263 260 262 263 263 263 265 263 262 259 259 259 264 261 262 262 260 265 266 267 267
Wind_Speed
4 2 3 4 3 3 4 3 3 3 4 4 4 6 6 6 6 4 4 7 9 12 12 14 15 14 12 12 13 13 13 13 12 12 12 13 15 18 21 23 25 27 27
4 4 4 5 4 4 3 4 4 4 4 5 6 6 7 6 5 6 4 3 7 8 9 11 12 11 10 11 10 12 13 15 17 17 17 16 15 14 14 16 19 17 17
6 6 4 4 4 3 5 5 5 5 5 4 7 5 5 5 5 4 3 2 2 4 8 10 10 10 10 12 15 16 19 19 20 19 19 18 17 16 17 19 20 20 13
6 6 5 3 2 3 3 5 4 5 6 4 3 4 3 3 3 3 2 3 4 4 8 16 16 20 19 19 19 18 19 19 18 18 18 18 17 18 18 19 21 19 20
5 2 2 3 4 4 3 3 2 3 5 4 1 3 3 3 1 2 5 7 8 8 7 19 23 21 21 19 18 17 18 18 18 18 18 19 19 19 19 19 19 18 20
7 5 4 4 4 3 3 3 3 2 2 4 3 4 3 3 3 5 7 8 9 10 10 11 8 11 21 22 21 19 18 18 19 18 18 19 18 19 19 20 20 21 21
8 7 5 4 5 5 4 5 2 3 2 5 4 2 2 6 8 8 7 7 9 11 12 12 8 7 8 20 21 21 20 20 19 19 19 19 19 20 20 20 20 20 20
9 7 6 7 6 3 6 6 5 2 2 5 3 2 2 2 7 7 7 8 10 9 11 12 13 12 10 9 15 22 21 21 20 20 20 20 20 20 20 20 20 20 20
9 8 8 6 6 6 5 5 5 5 2 2 6 2 2 1 1 2 8 7 8 8 9 11 12 12 11 10 12 15 21 21 20 21 20 20 20 21 21 21 21 21 20
9 8 7 7 6 5 6 5 5 4 2 3 2 4 3 2 2 0 3 6 8 9 9 8 10 11 12 9 14 20 21 21 20 20 21 21 21 21 20 20 21 22 22
8 7 8 8 7 5 7 7 7 7 5 3 3 3 3 3 3 2 2 2 5 6 7 8 8 9 11 10 10 14 20 21 21 21 22 22 22 22 21 20 22 23 22
5 8 8 7 7 7 7 6 7 9 7 7 6 7 5 3 3 2 1 1 2 4 6 6 8 8 9 9 12 19 20 20 21 20 20 20 20 20 21 21 23 23 23
4 7 7 7 6 6 7 7 8 9 9 7 8 7 6 6 4 2 1 1 1 1 3 5 6 8 8 8 10 19 17 20 20 20 20 20 19 19 20 22 22 22 22
3 5 6 6 7 7 7 7 7 7 8 8 11 9 7 6 6 6 3 3 2 1 2 3 3 8 9 9 12 19 12 20 20 22 21 21 20 19 22 23 23 23 22
4 6 6 7 7 7 7 8 7 8 9 9 9 9 8 7 7 6 6 5 3 2 1 2 3 9 8 8 12 12 11 20 19 22 22 22 21 21 24 24 24 23 22
5 6 6 7 7 7 7 8 8 8 9 8 7 9 8 6 7 6 6 5 5 2 3 3 3 8 9 8 11 12 13 18 20 23 23 23 22 24 26 25 25 23 24
5 6 6 6 7 7 7 9 9 9 10 9 8 9 9 8 6 6 6 5 5 4 2 2 5 9 10 12 13 12 12 12 12 22 24 22 23 26 27 25 24 24 25
5 6 6 7 7 8 7 8 9 8 9 9 7 8 8 6 8 8 6 6 5 4 2 4 7 7 8 10 13 13 12 11 12 17 23 20 25 26 25 23 24 25 24
6 6 6 7 7 7 8 8 8 9 9 8 8 8 8 8 8 6 7 5 5 4 4 4 5 6 7 9 11 10 11 12 11 20 15 20 24 23 22 23 25 25 25
7 7 6 6 6 6 7 7 8 8 8 8 8 9 8 9 9 8 7 7 6 5 6 5 5 6 5 9 7 9 11 9 12 11 9 18 20 21 20 24 25 24 27
6 6 7 6 5 5 4 6 7 8 8 8 8 8 9 10 13 12 7 8 9 6 5 5 6 6 7 10 11 10 11 11 13 3 10 10 11 10 12 19 19 27 26
7 7 6 6 6 5 8 8 7 7 8 7 7 7 7 9 11 13 14 14 12 8 8 6 6 8 9 10 10 11 10 11 8 4 13 12 8 9 11 12 27 27 25
7 7 7 7 7 6 8 9 9 8 8 7 7 6 6 6 9 8 11 12 12 14 14 7 8 8 9 11 11 12 11 10 10 12 12 9 9 12 11 14 24 22 26
7 7 7 7 7 6 7 10 9 8 8 8 7 7 6 8 10 8 7 7 7 8 10 7 7 7 8 9 10 9 10 11 11 7 11 7 12 12 13 10 19 16 31
7 6 7 7 7 7 8 8 6 6 7 7 8 8 7 7 11 11 7 7 6 8 9 13 11 10 12 14 13 7 8 9 6 6 6 11 10 16 12 8 6 25 25
7 6 7 6 6 6 9 8 6 4 6 5 5 5 9 8 10 13 8 7 7 7 7 8 7 8 10 11 14 9 7 8 7 6 7 11 11 13 12 4 13 12 12
Wind_Direction
239 233 215 221 224 229 234 238 235 239 238 245 244 239 252 255 269 266 270 272 275 278 291 313 318 328 328 334 333 335 340 340 344 343 337 323 303 287 276 270 259 253 243
240 230 232 223 218 219 213 218 224 231 239 231 246 236 249 248 253 260 260 271 274 307 316 334 355 5 6 360 359 1 17 34 37 35 30 22 15 4 341 325 314 290 251
230 234 239 222 226 218 223 220 224 231 235 249 251 249 255 260 254 270 279 297 344 3 3 18 32 39 36 43 41 41 44 39 33 29 26 14 12 6 359 357 6 2 319
281 272 270 268 311 250 231 229 229 249 252 236 257 257 246 253 266 278 350 28 32 39 56 57 59 60 52 49 46 41 41 38 29 26 23 19 16 13 7 3 2 1 4
5 7 360 10 329 319 2 4 1 345 309 336 287 261 266 262 306 19 53 63 67 65 77 74 61 54 54 49 42 37 36 34 31 25 24 22 18 18 13 9 359 355 356
22 32 28 34 13 35 16 24 341 323 305 335 307 284 313 8 29 59 77 79 68 68 65 55 53 52 49 46 41 37 35 32 30 27 26 22 21 18 14 11 9 8 1
34 40 35 17 26 47 35 24 344 4 38 353 296 333 10 49 70 78 71 71 72 72 72 65 58 52 46 44 36 34 30 29 26 26 24 21 20 16 13 12 9 7 2
32 42 32 34 21 21 33 22 20 354 32 20 350 304 346 120 73 69 67 65 76 81 75 65 59 53 48 41 33 31 27 25 22 22 21 19 16 14 12 9 7 4 0
37 30 42 36 31 33 36 33 18 35 357 38 33 325 276 343 359 105 62 65 81 82 80 68 58 51 46 42 32 25 23 21 20 19 17 15 13 11 8 7 6 4 1
42 37 45 50 47 44 47 36 29 28 13 28 342 15 26 3 310 204 114 69 80 79 75 67 55 48 40 36 31 20 17 16 16 14 12 11 10 7 6 6 5 0 355
39 39 46 49 47 49 49 47 41 42 42 58 18 352 9 4 20 281 265 111 90 79 76 70 59 46 37 30 25 14 12 11 11 10 8 6 3 3 3 3 2 356 352
40 37 44 50 51 53 50 54 58 57 62 69 61 51 47 30 14 351 312 5 10 99 82 69 55 42 34 27 19 10 7 6 6 5 4 2 0 1 359 357 356 351 350
33 35 42 45 49 55 60 63 66 63 58 64 62 66 61 49 25 34 33 16 331 87 127 76 56 38 28 21 14 5 2 360 0 360 359 359 357 358 359 353 349 348 345
67 52 56 56 54 58 65 70 70 75 74 71 70 69 72 55 45 43 47 5 347 341 60 46 85 32 21 12 3 360 353 354 354 354 353 354 352 353 354 347 346 344 343
77 63 63 63 57 62 70 79 78 79 76 73 72 71 68 60 54 51 49 34 6 341 330 43 17 26 7 1 1 355 348 347 347 349 349 349 347 347 349 345 343 341 342
77 74 72 72 70 68 72 78 76 72 80 76 76 79 75 70 71 64 56 55 50 24 304 359 10 354 356 358 359 352 346 342 345 346 346 345 344 344 343 342 340 340 340
82 81 80 79 74 74 77 87 85 84 84 81 75 75 72 64 63 64 63 58 47 37 338 321 327 341 352 353 351 350 351 344 338 338 339 341 341 340 339 340 339 339 338
90 89 89 86 80 77 79 88 92 90 90 89 86 79 68 60 58 52 50 50 41 51 9 323 319 348 346 353 345 345 345 341 333 331 334 337 335 335 338 337 336 336 334
101 96 97 94 94 97 97 93 96 100 96 91 83 77 66 58 56 56 53 42 26 22 7 341 337 354 341 354 339 345 343 335 327 329 330 336 328 334 334 332 333 331 331
113 106 105 108 105 102 100 104 103 101 103 95 85 73 59 50 48 42 46 39 23 18 17 5 347 341 350 349 337 346 339 341 324 324 332 330 323 329 330 331 328 326 328
116 115 107 93 96 101 94 101 108 109 105 100 94 83 60 50 48 46 48 39 29 23 11 359 2 351 359 352 355 341 332 331 317 314 334 324 324 325 332 327 320 328 329
116 107 105 100 85 85 94 104 110 109 97 94 88 76 72 53 53 51 53 48 50 33 24 9 3 6 360 350 342 341 338 344 340 338 336 319 313 329 323 317 320 323 326
132 123 116 109 97 92 99 98 102 98 95 90 76 72 67 49 56 54 52 50 49 38 42 24 9 8 345 346 338 335 339 331 311 313 322 309 332 322 325 312 315 318 337
139 135 125 113 110 98 104 108 100 103 97 91 81 75 70 49 55 55 57 48 45 38 32 25 15 359 355 346 346 338 332 317 300 301 360 303 323 323 315 308 304 318 331
141 138 118 117 111 105 105 114 114 115 108 103 84 57 73 52 46 55 58 46 40 35 18 18 16 13 10 2 7 349 352 350 336 339 5 334 330 321 318 298 315 331 327
142 136 128 106 86 90 104 106 117 120 124 113 93 63 63 64 51 60 57 44 38 21 8 8 13 14 10 2 10 14 355 352 347 316 357 335 336 346 321 292 332 321 320